Notices

What's New in latest Release from April 7th, 2021:

- Updated Glossary, including Speed of Maximum Gust, and Total Hourly Precipitation

- Updated national and regional climate services offices contacts and prices information

- Addition of station inventory lists for 1981-2010, 1971-2000, and 1961-1990 Normals.

If you haven't already, please take our survey and provide feedback about our website: https://eccc.sondage-survey.ca/f/LanguageSelection.aspx?s=442ca660-fcf1-47c0-95a9-59707d6fd709

Hourly Data Report for November 13, 2019

SAINT JOHN A
NEW BRUNSWICK
Current Station Operator: NAVCAN

45°18'58.000" N
65°53'24.000" W
108.80 m
8104901
71609
YSJ

Download Data

Hourly Data (November 2019)
Hourly Data Report for November 13, 2019
TIME
LST
Temp Definition
°C
Dew Point Definition
°C
Rel Hum Definition
%
Precip. Amount Definition
mm

Wind Dir Definition
10's deg

Wind Spd Definition
km/h
Visibility Definition
km
Stn Press Definition
kPa
Hmdx Definition


Wind Chill Definition


Weather Definition


00:00 -3.5 -5.5 86   29 25 8.1 99.09   -10 Snow
01:00 -3.7 -5.7 86   30 16 6.4 99.14   -9 Snow
02:00 -4.0 -6.0 86   28 24 24.1 99.15   -11 Cloudy
03:00 -5.2 -8.1 81   30 25 24.1 99.13   -13 LegendNANA
04:00 -6.1 -8.8 81   29 23 24.1 99.11   -13 LegendNANA
05:00 -6.7 -9.3 82   30 25 24.1 99.19   -15 Cloudy
06:00 -7.5 -10.6 79   29 22 24.1 99.22   -15 LegendNANA
07:00 -8.1 -11.2 79   29 23 24.1 99.32   -16 LegendNANA
08:00 -8.7 -11.9 78   28 28 24.1 99.40   -18 Blowing Snow
09:00 -8.7 -11.9 78   30 28 24.1 99.48   -18 LegendNANA
10:00 -7.9 -11.8 74   30 32 24.1 99.56   -17 LegendNANA
11:00 -6.1 -10.4 72   30 22 24.1 99.63   -13 Mostly Cloudy
12:00 -5.5 -10.2 69   30 28 24.1 99.69   -13 LegendNANA
13:00 -4.8 -10.1 67   31 27 24.1 99.72   -12 LegendNANA
14:00 -5.1 -10.2 68   32 31 16.1 99.85   -13 Snow
15:00 -5.2 -10.6 66   30 33 19.3 99.98   -14 Snow
16:00 -5.0 -10.8 64   31 32 24.1 100.15   -13 LegendNANA
17:00 -5.4 -10.2 69   29 26 24.1 100.33   -13 Mostly Cloudy
18:00 -5.5 -10.3 69   30 28 24.1 100.49   -13 LegendNANA
19:00 -5.9 -10.7 69   30 26 24.1 100.64   -14 LegendNANA
20:00 -6.3 -11.1 69   31 24 24.1 100.79   -14 Clear
21:00 -6.7 -11.1 71   30 22 24.1 100.91   -14 LegendNANA
22:00 -7.0 -11.2 73   30 19 24.1 101.00   -14 LegendNANA
23:00 -7.3 -11.1 74   32 17 24.1 101.08   -14 Clear

Notes on Data Quality.

Legend

  • E = Estimated
  • M = Missing
  • NA = Not Available*
  • [empty] = Indicates an unobserved value
Date modified: